FW4301 Weather Reports


time (UTC)temp
C
wind
direction
speed
KPH
gust
KPH
rain 1hr
cm
rain 24hr
cm
rain mn
cm
humidity
%
barometer
mb
20260906233534 38 0 0.0 0.0 0.00 0.00 0.00 28 1011.0
20260906233059 39 0 0.0 0.0 0.00 0.00 0.00 28 1011.0
20260906232529 39 0 0.0 0.0 0.00 0.00 0.00 28 1011.0
20260906232029 40 0 0.0 0.0 0.00 0.00 0.00 27 1011.1
20260906231551 40 0 0.0 0.0 0.00 0.00 0.00 26 1011.1
20260906231031 40 0 0.0 0.0 0.00 0.00 0.00 26 1011.1
20260906230529 40 0 0.0 0.0 0.00 0.00 0.00 26 1011.1
20260906230059 41 0 0.0 0.0 0.00 0.00 0.00 25 1011.2
20260906225530 41 0 0.0 0.0 0.00 0.00 0.00 24 1011.1
20260906225029 41 0 0.0 0.0 0.00 0.00 0.00 25 1011.0
20260906224555 41 0 0.0 0.0 0.00 0.00 0.00 26 1011.0
20260906224031 41 0 0.0 0.0 0.00 0.00 0.00 24 1011.0
20260906223529 42 0 0.0 0.0 0.00 0.00 0.00 24 1011.0
20260906223051 42 0 0.0 0.0 0.00 0.00 0.00 24 1011.0
20260906222533 42 0 0.0 0.0 0.00 0.00 0.00 24 1011.0
20260906222029 42 0 0.0 0.0 0.00 0.00 0.00 23 1011.0
20260906221553 42 0 0.0 0.0 0.00 0.00 0.00 23 1011.0
20260906221029 42 0 0.0 0.0 0.00 0.00 0.00 24 1011.1
20260906220532 42 0 0.0 0.0 0.00 0.00 0.00 22 1011.1
20260906220100 42 0 0.0 0.0 0.00 0.00 0.00 22 1011.1
20260906215531 43 0 0.0 0.0 0.00 0.00 0.00 22 1011.2
20260906215031 43 0 0.0 0.0 0.00 0.00 0.00 22 1011.3
20260906214549 43 0 0.0 0.0 0.00 0.00 0.00 24 1011.2
20260906214029 43 0 0.0 0.0 0.00 0.00 0.00 23 1011.3
20260906213529 42 0 0.0 0.0 0.00 0.00 0.00 24 1011.4
20260906213052 42 0 0.0 0.0 0.00 0.00 0.00 23 1011.3
20260906212528 42 0 0.0 0.0 0.00 0.00 0.00 25 1011.4
20260906212029 43 0 0.0 0.0 0.00 0.00 0.00 22 1011.4
20260906211553 43 0 0.0 0.0 0.00 0.00 0.00 23 1011.5
20260906211028 43 0 0.0 0.0 0.00 0.00 0.00 23 1011.4
20260906210531 43 0 0.0 0.0 0.00 0.00 0.00 23 1011.5
20260906205528 43 0 0.0 0.0 0.00 0.00 0.00 24 1011.6
20260906205028 43 0 0.0 0.0 0.00 0.00 0.00 23 1011.7
20260906204558 43 0 0.0 0.0 0.00 0.00 0.00 22 1011.8
20260906204030 43 0 0.0 0.0 0.00 0.00 0.00 25 1011.8
20260906203529 42 0 0.0 0.0 0.00 0.00 0.00 25 1011.8
20260906203050 42 0 0.0 0.0 0.00 0.00 0.00 25 1011.9
20260906202528 42 0 0.0 0.0 0.00 0.00 0.00 25 1011.9
20260906202030 42 0 0.0 0.0 0.00 0.00 0.00 27 1012.2
20260906201606 42 0 0.0 0.0 0.00 0.00 0.00 25 1012.2
20260906201030 42 0 0.0 0.0 0.00 0.00 0.00 27 1012.2
20260906200529 41 0 0.0 0.0 0.00 0.00 0.00 26 1012.3
20260906200100 41 0 0.0 0.0 0.00 0.00 0.00 25 1012.4
20260906195528 41 0 0.0 0.0 0.00 0.00 0.00 28 1012.3
20260906195029 42 0 0.0 0.0 0.00 0.00 0.00 25 1012.4
20260906194550 42 0 0.0 0.0 0.00 0.00 0.00 25 1012.6
20260906194029 42 0 0.0 0.0 0.00 0.00 0.00 24 1012.5
20260906193529 42 0 0.0 0.0 0.00 0.00 0.00 26 1012.5
20260906193059 42 0 0.0 0.0 0.00 0.00 0.00 25 1012.6
20260906192529 42 0 0.0 0.0 0.00 0.00 0.00 23 1012.8
20260906192029 43 0 0.0 0.0 0.00 0.00 0.00 23 1012.8
20260906191557 43 0 0.0 0.0 0.00 0.00 0.00 25 1012.8
20260906191029 42 0 0.0 0.0 0.00 0.00 0.00 26 1012.8
20260906190529 42 0 0.0 0.0 0.00 0.00 0.00 26 1012.8
20260906190111 43 0 0.0 0.0 0.00 0.00 0.00 23 1012.9
20260906185529 43 0 0.0 0.0 0.00 0.00 0.00 26 1013.0
20260906185029 42 0 0.0 0.0 0.00 0.00 0.00 27 1013.0
20260906184554 42 0 0.0 0.0 0.00 0.00 0.00 27 1013.1
20260906184028 42 0 0.0 0.0 0.00 0.00 0.00 28 1013.3
20260906183531 41 0 0.0 0.0 0.00 0.00 0.00 29 1013.3
20260906183050 41 0 0.0 0.0 0.00 0.00 0.00 27 1013.3
20260906182529 41 0 0.0 0.0 0.00 0.00 0.00 29 1013.3
20260906182029 41 0 0.0 0.0 0.00 0.00 0.00 30 1013.4
20260906181550 40 0 0.0 0.0 0.00 0.00 0.00 32 1013.4
20260906181028 40 0 0.0 1.6 0.00 0.00 0.00 26 1013.5
20260906180529 41 0 0.0 1.6 0.00 0.00 0.00 28 1013.5
20260906175529 40 0 0.0 0.0 0.00 0.00 0.00 31 1013.7
20260906175031 40 0 0.0 0.0 0.00 0.00 0.00 29 1013.8
20260906174554 40 0 0.0 0.0 0.00 0.00 0.00 31 1013.9
20260906174029 40 0 0.0 0.0 0.00 0.00 0.00 33 1013.9
20260906173528 40 0 0.0 0.0 0.00 0.00 0.00 30 1014.0
20260906173052 40 0 0.0 0.0 0.00 0.00 0.00 31 1014.2
20260906172529 40 0 0.0 0.0 0.00 0.00 0.00 32 1014.3
20260906172028 40 0 0.0 0.0 0.00 0.00 0.00 33 1014.4
20260906171554 39 0 0.0 0.0 0.00 0.00 0.00 34 1014.5
20260906171028 38 0 0.0 0.0 0.00 0.00 0.00 36 1014.5
20260906170529 38 0 0.0 0.0 0.00 0.00 0.00 35 1014.6
20260906170055 38 0 0.0 0.0 0.00 0.00 0.00 37 1014.6
20260906165530 38 0 0.0 0.0 0.00 0.00 0.00 37 1014.7
20260906165028 37 0 0.0 0.0 0.00 0.00 0.00 34 1014.6
20260906164557 37 0 0.0 0.0 0.00 0.00 0.00 37 1014.8
20260906164028 37 0 0.0 0.0 0.00 0.00 0.00 38 1014.7
20260906163529 37 0 0.0 0.0 0.00 0.00 0.00 38 1014.8
20260906163052 36 0 0.0 0.0 0.00 0.00 0.00 38 1014.9
20260906162529 36 0 0.0 0.0 0.00 0.00 0.00 42 1014.8
20260906162029 35 0 0.0 0.0 0.00 0.00 0.00 45 1014.7
20260906161550 35 0 0.0 0.0 0.00 0.00 0.00 47 1014.9
20260906161028 34 0 0.0 0.0 0.00 0.00 0.00 47 1014.9
20260906160531 33 0 0.0 0.0 0.00 0.00 0.00 49 1014.8
20260906160107 33 0 0.0 0.0 0.00 0.00 0.00 51 1014.9
20260906155529 32 0 0.0 0.0 0.00 0.00 0.00 53 1014.8
20260906155028 32 0 0.0 0.0 0.00 0.00 0.00 53 1014.9
20260906154557 32 0 0.0 0.0 0.00 0.00 0.00 53 1014.7
20260906154029 31 0 0.0 0.0 0.00 0.00 0.00 54 1014.7
20260906153528 31 0 0.0 0.0 0.00 0.00 0.00 55 1014.8
20260906153051 30 0 0.0 0.0 0.00 0.00 0.00 55 1014.8
20260906152533 30 0 0.0 0.0 0.00 0.00 0.00 56 1014.7
20260906152029 30 0 0.0 0.0 0.00 0.00 0.00 55 1014.6
20260906151557 30 0 0.0 0.0 0.00 0.00 0.00 56 1014.7
20260906151031 30 0 0.0 0.0 0.00 0.00 0.00 56 1014.8
20260906150529 30 0 0.0 0.0 0.00 0.00 0.00 57 1014.7
20260906150059 29 0 0.0 0.0 0.00 0.00 0.00 59 1014.7
20260906145559 29 0 0.0 0.0 0.00 0.00 0.00 58 1014.7
20260906145029 28 0 0.0 0.0 0.00 0.00 0.00 59 1014.6
20260906144553 28 0 0.0 0.0 0.00 0.00 0.00 59 1014.6
20260906144028 28 0 0.0 0.0 0.00 0.00 0.00 59 1014.7
20260906143531 28 0 0.0 0.0 0.00 0.00 0.00 59 1014.7
20260906143057 28 0 0.0 0.0 0.00 0.00 0.00 59 1014.5
20260906142528 27 0 0.0 0.0 0.00 0.00 0.00 59 1014.5
20260906142031 27 0 0.0 0.0 0.00 0.00 0.00 60 1014.5
20260906141548 27 0 0.0 0.0 0.00 0.00 0.00 60 1014.5
20260906141029 27 0 0.0 0.0 0.00 0.00 0.00 61 1014.5
20260906140529 26 0 0.0 0.0 0.00 0.00 0.00 61 1014.5
20260906140056 26 0 0.0 0.0 0.00 0.00 0.00 62 1014.4
20260906135530 26 0 0.0 0.0 0.00 0.00 0.00 63 1014.4
20260906135029 26 0 0.0 0.0 0.00 0.00 0.00 64 1014.3
20260906134558 25 0 0.0 0.0 0.00 0.00 0.00 65 1014.4
20260906134029 25 0 0.0 0.0 0.00 0.00 0.00 66 1014.3
20260906133528 25 0 0.0 0.0 0.00 0.00 0.00 66 1014.3
20260906133110 25 0 0.0 0.0 0.00 0.00 0.00 67 1014.2
20260906132529 24 0 0.0 0.0 0.00 0.00 0.00 67 1014.1
20260906132028 24 0 0.0 0.0 0.00 0.00 0.00 67 1014.2
20260906131551 23 0 0.0 0.0 0.00 0.00 0.00 67 1014.2
20260906131029 23 0 0.0 0.0 0.00 0.00 0.00 67 1014.2
20260906130529 23 0 0.0 0.0 0.00 0.00 0.00 67 1014.1
20260906130048 23 0 0.0 0.0 0.00 0.00 0.00 66 1014.0
20260906125529 23 0 0.0 0.0 0.00 0.00 0.00 66 1014.0
20260906125029 23 0 0.0 0.0 0.00 0.00 0.00 65 1014.1
20260906124554 23 0 0.0 0.0 0.00 0.00 0.00 65 1014.0
20260906124029 23 0 0.0 0.0 0.00 0.00 0.00 65 1013.9
20260906123529 23 0 0.0 0.0 0.00 0.00 0.00 65 1013.8
20260906123053 23 0 0.0 0.0 0.00 0.00 0.00 65 1013.7
20260906122529 23 0 0.0 0.0 0.00 0.00 0.00 65 1013.8
20260906122030 23 0 0.0 0.0 0.00 0.00 0.00 65 1013.6
20260906121557 23 0 0.0 0.0 0.00 0.00 0.00 65 1013.7
20260906121029 23 0 0.0 0.0 0.00 0.00 0.00 65 1013.7
20260906120530 23 0 0.0 0.0 0.00 0.00 0.00 65 1013.6
20260906120053 23 0 0.0 0.0 0.00 0.00 0.00 65 1013.6
20260906115535 23 0 0.0 0.0 0.00 0.00 0.00 65 1013.6
20260906115125 23 0 0.0 0.0 0.00 0.00 0.00 65 1013.6
20260906114605 23 0 0.0 0.0 0.00 0.00 0.00 65 1013.6
20260906114028 23 0 0.0 0.0 0.00 0.00 0.00 65 1013.7
20260906113529 23 0 0.0 0.0 0.00 0.00 0.00 65 1013.7
20260906113052 23 0 0.0 0.0 0.00 0.00 0.00 65 1013.6
20260906112530 23 0 0.0 0.0 0.00 0.00 0.00 65 1013.5
20260906112029 23 0 0.0 0.0 0.00 0.00 0.00 65 1013.4
20260906111553 23 0 0.0 0.0 0.00 0.00 0.00 65 1013.4
20260906111029 23 0 0.0 0.0 0.00 0.00 0.00 65 1013.4
20260906110529 23 0 0.0 0.0 0.00 0.00 0.00 65 1013.4
20260906110053 23 0 0.0 0.0 0.00 0.00 0.00 65 1013.3
20260906105531 23 0 0.0 0.0 0.00 0.00 0.00 65 1013.3
20260906105029 23 0 0.0 0.0 0.00 0.00 0.00 65 1013.3
20260906104614 23 0 0.0 0.0 0.00 0.00 0.00 65 1013.2
20260906104028 24 0 0.0 0.0 0.00 0.00 0.00 65 1013.2
20260906103531 24 0 0.0 0.0 0.00 0.00 0.00 65 1013.2
20260906103104 24 0 0.0 0.0 0.00 0.00 0.00 65 1013.2
20260906102532 24 0 0.0 0.0 0.00 0.00 0.00 65 1013.2
20260906102032 24 0 0.0 0.0 0.00 0.00 0.00 65 1013.1
20260906101550 24 0 0.0 0.0 0.00 0.00 0.00 65 1013.1
20260906101030 24 0 0.0 0.0 0.00 0.00 0.00 65 1013.0
20260906100529 24 0 0.0 0.0 0.00 0.00 0.00 65 1012.8
20260906100055 24 0 0.0 0.0 0.00 0.00 0.00 64 1012.8
20260906095531 24 0 0.0 0.0 0.00 0.00 0.00 64 1012.8
20260906095029 24 0 0.0 0.0 0.00 0.00 0.00 64 1012.7
20260906094553 25 0 0.0 0.0 0.00 0.00 0.00 64 1012.8
20260906094028 25 0 0.0 0.0 0.00 0.00 0.00 64 1012.7
20260906093530 25 0 0.0 0.0 0.00 0.00 0.00 64 1012.6
20260906093116 25 0 0.0 0.0 0.00 0.00 0.00 64 1012.5
20260906092530 25 0 0.0 0.0 0.00 0.00 0.00 64 1012.4
20260906092029 25 0 0.0 0.0 0.00 0.00 0.00 64 1012.4
20260906091556 25 0 0.0 0.0 0.00 0.00 0.00 64 1012.5
20260906091031 25 0 0.0 0.0 0.00 0.00 0.00 64 1012.5
20260906090531 25 0 0.0 0.0 0.00 0.00 0.00 64 1012.5
20260906090052 25 0 0.0 0.0 0.00 0.00 0.00 64 1012.5
20260906085529 25 0 0.0 0.0 0.00 0.00 0.00 64 1012.5
20260906085029 25 0 0.0 0.0 0.00 0.00 0.00 63 1012.4
20260906084550 25 0 0.0 0.0 0.00 0.00 0.00 64 1012.4
20260906084031 25 0 0.0 0.0 0.00 0.00 0.00 64 1012.4
20260906083534 25 0 0.0 0.0 0.00 0.00 0.00 64 1012.4
20260906083058 25 0 0.0 0.0 0.00 0.00 0.00 64 1012.5
20260906082531 25 0 0.0 0.0 0.00 0.00 0.00 63 1012.5
20260906082029 25 0 0.0 0.0 0.00 0.00 0.00 63 1012.6
20260906081553 25 0 0.0 0.0 0.00 0.00 0.00 63 1012.7
20260906081029 25 0 0.0 0.0 0.00 0.00 0.00 63 1012.6
20260906080530 25 0 0.0 0.0 0.00 0.00 0.00 63 1012.6
20260906080051 25 0 0.0 0.0 0.00 0.00 0.00 63 1012.5
20260906075527 26 0 0.0 0.0 0.00 0.00 0.00 62 1012.6
20260906075028 26 0 0.0 0.0 0.00 0.00 0.00 62 1012.5
20260906074551 26 0 0.0 0.0 0.00 0.00 0.00 62 1012.5
20260906074031 26 0 0.0 0.0 0.00 0.00 0.00 63 1012.5
20260906073529 26 0 0.0 0.0 0.00 0.00 0.00 62 1012.5
20260906073056 26 0 0.0 0.0 0.00 0.00 0.00 62 1012.5
20260906072529 26 0 0.0 0.0 0.00 0.00 0.00 62 1012.5
20260906072030 26 0 0.0 0.0 0.00 0.00 0.00 62 1012.7
20260906071550 26 0 0.0 0.0 0.00 0.00 0.00 62 1012.9
20260906071029 26 0 0.0 0.0 0.00 0.00 0.00 62 1012.9
20260906070528 26 0 0.0 0.0 0.00 0.00 0.00 62 1013.0
20260906070046 26 0 0.0 0.0 0.00 0.00 0.00 62 1013.2
20260906065529 26 0 0.0 0.0 0.00 0.00 0.00 62 1013.3
20260906065029 26 0 0.0 0.0 0.00 0.00 0.00 62 1013.2
20260906064552 26 0 0.0 0.0 0.00 0.00 0.00 62 1013.2
20260906064029 26 0 0.0 0.0 0.00 0.00 0.00 62 1013.3
20260906063528 26 0 0.0 0.0 0.00 0.00 0.00 61 1013.3
20260906063053 26 0 0.0 0.0 0.00 0.00 0.00 61 1013.4
20260906062528 26 0 0.0 0.0 0.00 0.00 0.00 61 1013.4
20260906062029 27 0 0.0 0.0 0.00 0.00 0.00 61 1013.5
20260906061556 27 0 0.0 0.0 0.00 0.00 0.00 61 1013.5
20260906061025 27 0 0.0 0.0 0.00 0.00 0.00 61 1013.4
20260906060529 27 0 0.0 0.0 0.00 0.00 0.00 61 1013.4
20260906060047 27 0 0.0 0.0 0.00 0.00 0.00 61 1013.4
20260906055529 27 0 0.0 0.0 0.00 0.00 0.00 60 1013.4
20260906055030 27 0 0.0 0.0 0.00 0.00 0.00 60 1013.3
20260906054604 27 0 0.0 0.0 0.00 0.00 0.00 60 1013.4
20260906054029 27 0 0.0 0.0 0.00 0.00 0.00 60 1013.3
20260906053529 27 0 0.0 0.0 0.00 0.00 0.00 60 1013.2
20260906053054 27 0 0.0 0.0 0.00 0.00 0.00 59 1013.2
20260906052529 27 0 0.0 0.0 0.00 0.00 0.00 59 1013.2
20260906052029 27 0 0.0 0.0 0.00 0.00 0.00 59 1013.1
20260906051549 27 0 0.0 0.0 0.00 0.00 0.00 59 1013.1
20260906051029 27 0 0.0 0.0 0.00 0.00 0.00 59 1013.0
20260906050529 27 0 0.0 0.0 0.00 0.00 0.00 59 1013.0
20260906050121 27 0 0.0 0.0 0.00 0.00 0.00 59 1013.1
20260906045529 27 0 0.0 0.0 0.00 0.00 0.00 59 1013.1
20260906045032 27 0 0.0 0.0 0.00 0.00 0.00 59 1013.2
20260906044553 28 0 0.0 0.0 0.00 0.00 0.00 59 1013.2
20260906044028 28 0 0.0 0.0 0.00 0.00 0.00 58 1013.1
20260906043529 28 0 0.0 0.0 0.00 0.00 0.00 58 1013.0
20260906043058 28 0 0.0 0.0 0.00 0.00 0.00 58 1013.1
20260906042530 28 0 0.0 0.0 0.00 0.00 0.00 58 1013.2
20260906042029 28 0 0.0 0.0 0.00 0.00 0.00 57 1013.1
20260906041558 28 0 0.0 0.0 0.00 0.00 0.00 57 1013.2
20260906041028 28 0 0.0 0.0 0.00 0.00 0.00 57 1013.2
20260906040529 28 0 0.0 0.0 0.00 0.00 0.00 57 1013.0
20260906040105 28 0 0.0 0.0 0.00 0.00 0.00 57 1012.9
20260906035528 28 0 0.0 0.0 0.00 0.00 0.00 57 1012.8
20260906035029 28 0 0.0 0.0 0.00 0.00 0.00 56 1012.9
20260906034556 28 0 0.0 0.0 0.00 0.00 0.00 56 1012.9
20260906034029 28 0 0.0 0.0 0.00 0.00 0.00 56 1012.9
20260906033529 29 0 0.0 0.0 0.00 0.00 0.00 56 1013.0
20260906033100 29 0 0.0 0.0 0.00 0.00 0.00 56 1013.0
20260906032533 29 0 0.0 0.0 0.00 0.00 0.00 56 1013.0
20260906032029 29 0 0.0 0.0 0.00 0.00 0.00 55 1012.9
20260906031600 29 0 0.0 0.0 0.00 0.00 0.00 55 1013.0
20260906031029 29 0 0.0 0.0 0.00 0.00 0.00 55 1013.0
20260906030531 30 0 0.0 0.0 0.00 0.00 0.00 55 1013.0
20260906030053 30 0 0.0 0.0 0.00 0.00 0.00 54 1012.9
20260906025531 30 0 0.0 0.0 0.00 0.00 0.00 54 1012.9
20260906025029 30 0 0.0 0.0 0.00 0.00 0.00 54 1012.9
20260906024550 30 0 0.0 0.0 0.00 0.00 0.00 54 1012.9
20260906024033 30 0 0.0 0.0 0.00 0.00 0.00 53 1012.8
20260906023533 30 0 0.0 0.0 0.00 0.00 0.00 53 1012.8
20260906023100 30 0 0.0 0.0 0.00 0.00 0.00 53 1012.6
20260906022529 30 0 0.0 0.0 0.00 0.00 0.00 53 1012.5
20260906022029 30 0 0.0 0.0 0.00 0.00 0.00 52 1012.3
20260906021559 30 0 0.0 0.0 0.00 0.00 0.00 52 1012.3
20260906021031 30 0 0.0 0.0 0.00 0.00 0.00 52 1012.2
20260906020529 30 0 0.0 0.0 0.00 0.00 0.00 51 1012.2
20260906020057 31 0 0.0 0.0 0.00 0.00 0.00 51 1012.1
20260906015528 31 0 0.0 0.0 0.00 0.00 0.00 51 1012.0
20260906015029 31 0 0.0 0.0 0.00 0.00 0.00 50 1012.1
20260906014555 31 0 0.0 0.0 0.00 0.00 0.00 50 1011.9
20260906014029 31 0 0.0 0.0 0.00 0.00 0.00 50 1011.9
20260906013529 31 0 0.0 0.0 0.00 0.00 0.00 49 1011.8
20260906013052 31 0 0.0 0.0 0.00 0.00 0.00 49 1011.7
20260906012531 31 0 0.0 0.0 0.00 0.00 0.00 49 1011.6
20260906012029 31 0 0.0 0.0 0.00 0.00 0.00 48 1011.6
20260906011557 31 0 0.0 0.0 0.00 0.00 0.00 48 1011.6
20260906011030 32 0 0.0 0.0 0.00 0.00 0.00 47 1011.6
20260906010531 32 0 0.0 0.0 0.00 0.00 0.00 46 1011.7
20260906005529 32 0 0.0 0.0 0.00 0.00 0.00 45 1011.6
20260906005029 33 0 0.0 0.0 0.00 0.00 0.00 44 1011.7
20260906004556 33 0 0.0 0.0 0.00 0.00 0.00 42 1011.6
20260906004029 34 0 0.0 0.0 0.00 0.00 0.00 40 1011.5
20260906003529 35 0 0.0 0.0 0.00 0.00 0.00 38 1011.5
20260906003052 35 0 0.0 0.0 0.00 0.00 0.00 36 1011.6
20260906002528 35 0 0.0 0.0 0.00 0.00 0.00 33 1011.3
20260906002030 36 0 0.0 0.0 0.00 0.00 0.00 33 1011.1
20260906001600 36 0 0.0 0.0 0.00 0.00 0.00 33 1011.1
20260906001028 36 0 0.0 0.0 0.00 0.00 0.00 32 1011.0
20260906000529 36 0 0.0 0.0 0.00 0.00 0.00 32 1011.0
20260906000059 36 0 0.0 0.0 0.00 0.00 0.00 31 1010.9
20260905235530 36 0 0.0 0.0 0.00 0.00 0.00 31 1011.0
20260905235032 36 0 0.0 0.0 0.00 0.00 0.00 31 1010.9
20260905234610 37 0 0.0 0.0 0.00 0.00 0.00 31 1010.9
20260905234029 37 0 0.0 0.0 0.00 0.00 0.00 30 1010.8